| time (UTC) | temp F | wind direction | speed knots | gust knots | rain 1hr in | rain 24hr in | rain mn in | humidity % | barometer mb |
| 20260505212008 | 63 | 257 | 0.9 | 3.5 | 0.00 | 0.00 | 0.00 | 74 | 1013.9 |
| 20260505211508 | 62 | 256 | 0.0 | 2.6 | 0.00 | 0.00 | 0.00 | 75 | 1013.9 |
| 20260505211007 | 62 | 256 | 0.9 | 2.6 | 0.00 | 0.00 | 0.00 | 74 | 1013.9 |
| 20260505210511 | 62 | 256 | 1.7 | 2.6 | 0.00 | 0.00 | 0.00 | 73 | 1014.0 |
| 20260505210007 | 63 | 256 | 0.9 | 2.6 | 0.00 | 0.00 | 0.00 | 74 | 1014.0 |
| 20260505205512 | 62 | 256 | 0.9 | 2.6 | 0.00 | 0.00 | 0.00 | 74 | 1014.0 |
| 20260505205011 | 62 | 201 | 0.9 | 2.6 | 0.00 | 0.00 | 0.00 | 73 | 1014.0 |
| 20260505204507 | 62 | 190 | 0.9 | 3.5 | 0.00 | 0.00 | 0.00 | 72 | 1014.1 |
| 20260505204008 | 62 | 196 | 0.0 | 4.3 | 0.00 | 0.00 | 0.00 | 72 | 1014.1 |
| 20260505203508 | 63 | 193 | 0.9 | 3.5 | 0.00 | 0.00 | 0.00 | 71 | 1014.1 |
| 20260505203005 | 63 | 276 | 0.0 | 2.6 | 0.00 | 0.00 | 0.00 | 72 | 1014.1 |
| 20260505202504 | 63 | 276 | 0.0 | 2.6 | 0.00 | 0.00 | 0.00 | 73 | 1014.2 |
| 20260505202004 | 63 | 276 | 0.9 | 2.6 | 0.00 | 0.00 | 0.00 | 74 | 1014.1 |
| 20260505201505 | 63 | 276 | 0.9 | 3.5 | 0.00 | 0.00 | 0.00 | 74 | 1014.1 |
| 20260505201002 | 62 | 276 | 1.7 | 3.5 | 0.00 | 0.00 | 0.00 | 73 | 1014.1 |
| 20260505200501 | 62 | 155 | 0.0 | 2.6 | 0.00 | 0.00 | 0.00 | 75 | 1014.2 |
| 20260505200103 | 61 | 155 | 0.0 | 5.2 | 0.00 | 0.00 | 0.00 | 74 | 1014.2 |
| 20260505195559 | 61 | 155 | 0.0 | 5.2 | 0.00 | 0.00 | 0.00 | 73 | 1014.3 |
| 20260505195059 | 61 | 153 | 0.0 | 4.3 | 0.00 | 0.00 | 0.00 | 73 | 1014.3 |
| 20260505194619 | 61 | 153 | 1.7 | 5.2 | 0.00 | 0.00 | 0.00 | 74 | 1014.3 |
| 20260505194059 | 61 | 153 | 1.7 | 5.2 | 0.00 | 0.00 | 0.00 | 74 | 1014.3 |
| 20260505193601 | 61 | 133 | 0.0 | 2.6 | 0.00 | 0.00 | 0.00 | 73 | 1014.3 |
| 20260505193057 | 62 | 133 | 0.9 | 2.6 | 0.00 | 0.00 | 0.00 | 73 | 1014.2 |
| 20260505192556 | 61 | 133 | 0.0 | 2.6 | 0.00 | 0.00 | 0.00 | 74 | 1014.3 |
| 20260505192055 | 62 | 133 | 0.0 | 2.6 | 0.00 | 0.00 | 0.00 | 73 | 1014.3 |
| 20260505191554 | 61 | 133 | 0.0 | 2.6 | 0.00 | 0.00 | 0.00 | 73 | 1014.3 |
| 20260505191053 | 61 | 133 | 0.9 | 4.3 | 0.00 | 0.00 | 0.00 | 74 | 1014.3 |
| 20260505190552 | 61 | 133 | 0.9 | 4.3 | 0.00 | 0.00 | 0.00 | 74 | 1014.3 |
| 20260505190052 | 61 | 95 | 0.0 | 2.6 | 0.00 | 0.00 | 0.00 | 74 | 1014.2 |
| 20260505185555 | 61 | 95 | 0.0 | 3.5 | 0.00 | 0.00 | 0.00 | 75 | 1014.2 |
| 20260505185051 | 60 | 92 | 0.0 | 3.5 | 0.00 | 0.00 | 0.00 | 76 | 1014.2 |
| 20260505184549 | 60 | 94 | 0.9 | 3.5 | 0.00 | 0.00 | 0.00 | 77 | 1014.3 |
| 20260505184048 | 59 | 93 | 0.0 | 1.7 | 0.00 | 0.00 | 0.00 | 76 | 1014.3 |
| 20260505183548 | 59 | 93 | 0.0 | 1.7 | 0.00 | 0.00 | 0.00 | 76 | 1014.3 |
| 20260505183047 | 59 | 93 | 0.0 | 2.6 | 0.00 | 0.00 | 0.00 | 76 | 1014.3 |
| 20260505182546 | 59 | 93 | 0.0 | 2.6 | 0.00 | 0.00 | 0.00 | 77 | 1014.3 |
| 20260505182048 | 59 | 93 | 0.9 | 3.5 | 0.00 | 0.00 | 0.00 | 78 | 1014.3 |
| 20260505181550 | 59 | 93 | 1.7 | 3.5 | 0.00 | 0.00 | 0.00 | 77 | 1014.3 |
| 20260505181045 | 58 | 93 | 0.0 | 1.7 | 0.00 | 0.00 | 0.00 | 78 | 1014.3 |
| 20260505180545 | 58 | 93 | 0.0 | 2.6 | 0.00 | 0.00 | 0.00 | 77 | 1014.2 |
| 20260505180045 | 58 | 93 | 0.0 | 2.6 | 0.00 | 0.00 | 0.00 | 77 | 1014.2 |
| 20260505175546 | 58 | 93 | 0.0 | 2.6 | 0.00 | 0.00 | 0.00 | 78 | 1014.2 |
| 20260505175044 | 58 | 93 | 0.9 | 2.6 | 0.00 | 0.00 | 0.00 | 78 | 1014.3 |
| 20260505174552 | 58 | 93 | 0.0 | 3.5 | 0.00 | 0.00 | 0.00 | 80 | 1014.3 |
| 20260505174044 | 57 | 93 | 0.0 | 3.5 | 0.00 | 0.00 | 0.00 | 79 | 1014.3 |
| 20260505173545 | 57 | 93 | 0.9 | 3.5 | 0.00 | 0.00 | 0.00 | 79 | 1014.3 |
| 20260505173043 | 57 | 93 | 0.9 | 3.5 | 0.00 | 0.00 | 0.00 | 79 | 1014.2 |
| 20260505172542 | 57 | 93 | 0.9 | 3.5 | 0.00 | 0.00 | 0.00 | 80 | 1014.2 |
| 20260505172042 | 57 | 93 | 0.0 | 2.6 | 0.00 | 0.00 | 0.00 | 80 | 1014.2 |
| 20260505171542 | 57 | 93 | 1.7 | 2.6 | 0.00 | 0.00 | 0.00 | 79 | 1014.1 |
| 20260505171044 | 57 | 93 | 0.0 | 2.6 | 0.00 | 0.00 | 0.00 | 80 | 1014.0 |
| 20260505170540 | 57 | 93 | 0.9 | 2.6 | 0.00 | 0.00 | 0.00 | 79 | 1014.0 |
| 20260505170040 | 57 | 93 | 0.9 | 2.6 | 0.00 | 0.00 | 0.00 | 80 | 1014.0 |
| 20260505165540 | 57 | 93 | 0.0 | 2.6 | 0.00 | 0.00 | 0.00 | 80 | 1013.9 |
| 20260505165041 | 57 | 93 | 0.9 | 2.6 | 0.00 | 0.00 | 0.00 | 80 | 1013.9 |
| 20260505164542 | 57 | 93 | 0.0 | 1.7 | 0.00 | 0.00 | 0.00 | 81 | 1013.9 |
| 20260505164041 | 57 | 93 | 0.0 | 2.6 | 0.00 | 0.00 | 0.00 | 80 | 1013.9 |
| 20260505163538 | 57 | 93 | 0.9 | 2.6 | 0.00 | 0.00 | 0.00 | 80 | 1013.9 |
| 20260505163048 | 57 | 93 | 0.0 | 0.9 | 0.00 | 0.00 | 0.00 | 81 | 1013.9 |
| 20260505162538 | 56 | 93 | 0.0 | 2.6 | 0.00 | 0.00 | 0.00 | 82 | 1013.9 |
| 20260505162037 | 56 | 93 | 0.0 | 2.6 | 0.00 | 0.00 | 0.00 | 82 | 1013.8 |
| 20260505161537 | 56 | 93 | 0.0 | 1.7 | 0.00 | 0.00 | 0.00 | 82 | 1013.8 |
| 20260505161037 | 56 | 93 | 0.0 | 2.6 | 0.00 | 0.00 | 0.00 | 82 | 1013.8 |
| 20260505160537 | 55 | 93 | 0.0 | 2.6 | 0.00 | 0.00 | 0.00 | 83 | 1013.7 |
| 20260505153035 | 54 | 93 | 0.9 | 3.5 | 0.00 | 0.00 | 0.00 | 85 | 1013.7 |
| 20260505152534 | 54 | 93 | 0.0 | 1.7 | 0.00 | 0.00 | 0.00 | 85 | 1013.7 |
| 20260505152033 | 54 | 93 | 0.0 | 1.7 | 0.00 | 0.00 | 0.00 | 85 | 1013.7 |
| 20260505151533 | 54 | 93 | 0.0 | 1.7 | 0.00 | 0.00 | 0.00 | 86 | 1013.6 |
| 20260505151035 | 54 | 93 | 0.0 | 1.7 | 0.00 | 0.00 | 0.00 | 86 | 1013.6 |
| 20260505150533 | 54 | 93 | 0.0 | 3.5 | 0.00 | 0.00 | 0.00 | 87 | 1013.6 |
| 20260505140525 | 54 | 93 | 0.0 | 0.0 | 0.00 | 0.00 | 0.00 | 84 | 1013.1 |
| 20260505125018 | 55 | 93 | 0.0 | 2.6 | 0.00 | 0.00 | 0.00 | 82 | 1012.6 |
| 20260505124517 | 55 | 93 | 0.9 | 1.7 | 0.00 | 0.00 | 0.00 | 82 | 1012.6 |
| 20260505124017 | 55 | 93 | 0.0 | 2.6 | 0.00 | 0.00 | 0.00 | 81 | 1012.6 |
| 20260505123518 | 55 | 93 | 0.9 | 2.6 | 0.00 | 0.00 | 0.00 | 82 | 1012.6 |
| 20260505123016 | 54 | 93 | 0.0 | 1.7 | 0.00 | 0.00 | 0.00 | 82 | 1012.5 |
| 20260505122515 | 54 | 93 | 0.0 | 2.6 | 0.00 | 0.00 | 0.00 | 82 | 1012.6 |
| 20260505122016 | 54 | 93 | 0.0 | 2.6 | 0.00 | 0.00 | 0.00 | 83 | 1012.5 |
| 20260505121515 | 54 | 93 | 0.0 | 1.7 | 0.00 | 0.00 | 0.00 | 82 | 1012.5 |
| 20260505121015 | 54 | 93 | 0.9 | 3.5 | 0.00 | 0.00 | 0.00 | 82 | 1012.5 |
| 20260505120514 | 54 | 93 | 0.9 | 3.5 | 0.00 | 0.00 | 0.00 | 82 | 1012.5 |
| 20260505120015 | 54 | 93 | 0.0 | 3.5 | 0.00 | 0.00 | 0.00 | 82 | 1012.5 |
| 20260505115513 | 54 | 93 | 0.0 | 2.6 | 0.00 | 0.00 | 0.00 | 82 | 1012.5 |
| 20260505115013 | 54 | 93 | 0.0 | 2.6 | 0.00 | 0.00 | 0.00 | 82 | 1012.5 |
| 20260505114512 | 54 | 93 | 0.0 | 3.5 | 0.00 | 0.00 | 0.00 | 82 | 1012.5 |
| 20260505114013 | 54 | 93 | 0.9 | 3.5 | 0.00 | 0.00 | 0.00 | 82 | 1012.5 |
| 20260505113511 | 54 | 93 | 0.0 | 2.6 | 0.00 | 0.00 | 0.00 | 82 | 1012.4 |
| 20260505113011 | 54 | 93 | 0.9 | 2.6 | 0.00 | 0.00 | 0.00 | 82 | 1012.4 |
| 20260505112514 | 54 | 93 | 0.9 | 2.6 | 0.00 | 0.00 | 0.00 | 82 | 1012.4 |
| 20260505112011 | 54 | 93 | 0.0 | 1.7 | 0.00 | 0.00 | 0.00 | 82 | 1012.4 |
| 20260505111513 | 54 | 93 | 0.0 | 2.6 | 0.00 | 0.00 | 0.00 | 82 | 1012.3 |
| 20260505111011 | 54 | 93 | 0.0 | 2.6 | 0.00 | 0.00 | 0.00 | 82 | 1012.3 |
| 20260505110510 | 55 | 93 | 0.0 | 3.5 | 0.00 | 0.00 | 0.00 | 82 | 1012.3 |
| 20260505102003 | 56 | 93 | 0.0 | 1.7 | 0.00 | 0.00 | 0.00 | 79 | 1011.8 |
| 20260505101504 | 55 | 93 | 0.0 | 2.6 | 0.00 | 0.00 | 0.00 | 81 | 1011.8 |
| 20260505101003 | 55 | 93 | 0.9 | 2.6 | 0.00 | 0.00 | 0.00 | 81 | 1011.9 |
| 20260505100504 | 55 | 93 | 0.0 | 2.6 | 0.00 | 0.00 | 0.00 | 81 | 1011.9 |
| 20260505100003 | 55 | 93 | 0.0 | 1.7 | 0.00 | 0.00 | 0.00 | 81 | 1011.9 |
| 20260505095503 | 55 | 93 | 0.0 | 1.7 | 0.00 | 0.00 | 0.00 | 81 | 1011.8 |
| 20260505095004 | 55 | 93 | 0.0 | 1.7 | 0.00 | 0.00 | 0.00 | 81 | 1011.9 |
| 20260505094503 | 55 | 93 | 0.0 | 3.5 | 0.00 | 0.00 | 0.00 | 81 | 1011.8 |
| 20260505094002 | 56 | 93 | 0.0 | 3.5 | 0.00 | 0.00 | 0.00 | 80 | 1011.9 |
| 20260505093500 | 56 | 93 | 0.9 | 3.5 | 0.00 | 0.00 | 0.00 | 81 | 1011.8 |
| 20260505093108 | 56 | 93 | 0.0 | 2.6 | 0.00 | 0.00 | 0.00 | 81 | 1011.7 |
| 20260505092558 | 56 | 93 | 0.0 | 2.6 | 0.00 | 0.00 | 0.00 | 80 | 1011.6 |
| 20260505092058 | 56 | 93 | 0.9 | 3.5 | 0.00 | 0.00 | 0.00 | 80 | 1011.6 |
| 20260505091557 | 56 | 93 | 0.9 | 3.5 | 0.00 | 0.00 | 0.00 | 79 | 1011.6 |
| 20260505091056 | 57 | 93 | 0.9 | 3.5 | 0.00 | 0.00 | 0.00 | 79 | 1011.5 |
| 20260505090556 | 57 | 93 | 0.0 | 2.6 | 0.00 | 0.00 | 0.00 | 79 | 1011.5 |
| 20260505090057 | 57 | 93 | 0.9 | 2.6 | 0.00 | 0.00 | 0.00 | 79 | 1011.4 |
| 20260505085555 | 57 | 93 | 0.0 | 0.9 | 0.00 | 0.00 | 0.00 | 79 | 1011.5 |
| 20260505085055 | 57 | 93 | 0.0 | 1.7 | 0.00 | 0.00 | 0.00 | 79 | 1011.4 |
| 20260505084554 | 57 | 93 | 0.0 | 2.6 | 0.00 | 0.00 | 0.00 | 80 | 1011.3 |
| 20260505084053 | 57 | 93 | 0.0 | 2.6 | 0.00 | 0.00 | 0.00 | 80 | 1011.3 |
| 20260505083553 | 57 | 93 | 0.9 | 2.6 | 0.00 | 0.00 | 0.00 | 80 | 1011.3 |
| 20260505083054 | 57 | 93 | 0.0 | 3.5 | 0.00 | 0.00 | 0.00 | 80 | 1011.3 |
| 20260505082553 | 57 | 93 | 0.9 | 3.5 | 0.00 | 0.00 | 0.00 | 79 | 1011.2 |
| 20260505082053 | 57 | 93 | 1.7 | 5.2 | 0.00 | 0.00 | 0.00 | 80 | 1011.3 |
| 20260505081603 | 57 | 93 | 1.7 | 5.2 | 0.00 | 0.00 | 0.00 | 80 | 1011.3 |
| 20260505081053 | 57 | 93 | 1.7 | 5.2 | 0.00 | 0.00 | 0.00 | 80 | 1011.3 |
| 20260505080554 | 57 | 93 | 0.0 | 2.6 | 0.00 | 0.00 | 0.00 | 80 | 1011.2 |
| 20260505080059 | 57 | 93 | 0.0 | 0.9 | 0.00 | 0.00 | 0.00 | 80 | 1011.1 |
| 20260505075554 | 57 | 93 | 0.0 | 1.7 | 0.00 | 0.00 | 0.00 | 80 | 1011.1 |
| 20260505075051 | 57 | 93 | 0.0 | 1.7 | 0.00 | 0.00 | 0.00 | 80 | 1011.1 |
| 20260505074549 | 57 | 93 | 0.0 | 2.6 | 0.00 | 0.00 | 0.00 | 80 | 1011.0 |
| 20260505074049 | 57 | 93 | 0.0 | 3.5 | 0.00 | 0.00 | 0.00 | 79 | 1010.9 |
| 20260505073548 | 57 | 93 | 1.7 | 3.5 | 0.00 | 0.00 | 0.00 | 79 | 1010.9 |
| 20260505073050 | 57 | 93 | 0.0 | 1.7 | 0.00 | 0.00 | 0.00 | 79 | 1010.7 |
| 20260505072547 | 57 | 93 | 0.0 | 2.6 | 0.00 | 0.00 | 0.00 | 79 | 1010.7 |
| 20260505072048 | 57 | 93 | 0.9 | 5.2 | 0.00 | 0.00 | 0.00 | 79 | 1010.6 |
| 20260505071551 | 58 | 93 | 0.9 | 5.2 | 0.00 | 0.00 | 0.00 | 78 | 1010.6 |
| 20260505071042 | 58 | 117 | 1.7 | 5.2 | 0.00 | 0.00 | 0.00 | 78 | 1010.5 |
| 20260505070545 | 58 | 120 | 0.9 | 3.5 | 0.00 | 0.00 | 0.00 | 78 | 1010.5 |
| 20260505070040 | 58 | 120 | 0.9 | 3.5 | 0.00 | 0.00 | 0.00 | 78 | 1010.5 |
| 20260505065539 | 59 | 120 | 0.9 | 5.2 | 0.00 | 0.00 | 0.00 | 78 | 1010.5 |
| 20260505065039 | 59 | 120 | 0.9 | 5.2 | 0.00 | 0.00 | 0.00 | 77 | 1010.3 |
| 20260505064541 | 59 | 126 | 1.7 | 5.2 | 0.00 | 0.00 | 0.00 | 77 | 1010.3 |
| 20260505064038 | 60 | 109 | 1.7 | 5.2 | 0.00 | 0.00 | 0.00 | 76 | 1010.2 |
| 20260505063538 | 60 | 131 | 0.9 | 4.3 | 0.00 | 0.00 | 0.00 | 76 | 1010.1 |
| 20260505063038 | 60 | 131 | 0.0 | 3.5 | 0.00 | 0.00 | 0.00 | 75 | 1010.0 |
| 20260505062539 | 61 | 131 | 1.7 | 3.5 | 0.00 | 0.00 | 0.00 | 75 | 1010.0 |
| 20260505062038 | 61 | 130 | 0.9 | 4.3 | 0.00 | 0.00 | 0.00 | 75 | 1009.8 |
| 20260505061538 | 61 | 130 | 0.9 | 4.3 | 0.00 | 0.00 | 0.00 | 75 | 1009.8 |
| 20260505061037 | 61 | 128 | 0.9 | 4.3 | 0.00 | 0.00 | 0.00 | 75 | 1009.7 |
| 20260505060541 | 62 | 128 | 1.7 | 4.3 | 0.00 | 0.00 | 0.00 | 74 | 1009.6 |
| 20260505060037 | 62 | 128 | 0.0 | 3.5 | 0.00 | 0.00 | 0.00 | 74 | 1009.5 |
| 20260505055539 | 62 | 128 | 0.9 | 4.3 | 0.00 | 0.00 | 0.00 | 74 | 1009.6 |
| 20260505055037 | 63 | 128 | 1.7 | 4.3 | 0.00 | 0.00 | 0.00 | 73 | 1009.5 |
| 20260505054549 | 63 | 116 | 0.0 | 3.5 | 0.00 | 0.00 | 0.00 | 73 | 1009.4 |
| 20260505054037 | 63 | 115 | 0.0 | 2.6 | 0.00 | 0.00 | 0.00 | 74 | 1009.5 |
| 20260505053536 | 63 | 115 | 0.9 | 2.6 | 0.00 | 0.00 | 0.00 | 73 | 1009.4 |
| 20260505053052 | 63 | 115 | 0.0 | 1.7 | 0.00 | 0.00 | 0.00 | 73 | 1009.4 |
| 20260505052536 | 63 | 115 | 0.0 | 5.2 | 0.00 | 0.00 | 0.00 | 73 | 1009.3 |
| 20260505052038 | 64 | 115 | 0.9 | 5.2 | 0.00 | 0.00 | 0.00 | 73 | 1009.2 |
| 20260505051541 | 64 | 139 | 1.7 | 3.5 | 0.00 | 0.00 | 0.00 | 72 | 1009.2 |
| 20260505051036 | 64 | 161 | 0.0 | 2.6 | 0.00 | 0.00 | 0.00 | 72 | 1009.2 |
| 20260505050536 | 65 | 161 | 1.7 | 3.5 | 0.00 | 0.00 | 0.00 | 71 | 1009.2 |
| 20260505041536 | 68 | 161 | 0.0 | 0.0 | 0.00 | 0.00 | 0.00 | 68 | 1008.6 |
| 20260505041034 | 68 | 161 | 0.0 | 0.0 | 0.00 | 0.00 | 0.00 | 69 | 1008.5 |
| 20260505040537 | 69 | 161 | 0.0 | 1.7 | 0.00 | 0.00 | 0.00 | 68 | 1008.5 |
| 20260505040041 | 69 | 161 | 0.0 | 1.7 | 0.00 | 0.00 | 0.00 | 68 | 1008.5 |
| 20260505035535 | 69 | 161 | 0.0 | 1.7 | 0.00 | 0.00 | 0.00 | 68 | 1008.4 |
| 20260505035035 | 69 | 161 | 0.0 | 1.7 | 0.00 | 0.00 | 0.00 | 68 | 1008.3 |
| 20260505034533 | 70 | 161 | 0.0 | 2.6 | 0.00 | 0.00 | 0.00 | 68 | 1008.2 |
| 20260505034033 | 70 | 161 | 0.9 | 4.3 | 0.00 | 0.00 | 0.00 | 67 | 1008.1 |
| 20260505033533 | 70 | 167 | 0.9 | 4.3 | 0.00 | 0.00 | 0.00 | 67 | 1008.1 |
| 20260505033040 | 70 | 172 | 0.9 | 3.5 | 0.00 | 0.00 | 0.00 | 67 | 1007.9 |
| 20260505032532 | 71 | 168 | 0.0 | 2.6 | 0.00 | 0.00 | 0.00 | 67 | 1007.9 |
| 20260505032032 | 71 | 168 | 0.0 | 3.5 | 0.00 | 0.00 | 0.00 | 67 | 1007.7 |
| 20260505031533 | 71 | 168 | 0.9 | 3.5 | 0.00 | 0.00 | 0.00 | 67 | 1007.7 |
| 20260505031032 | 71 | 175 | 0.9 | 6.1 | 0.00 | 0.00 | 0.00 | 66 | 1007.7 |
| 20260505030534 | 72 | 173 | 1.7 | 6.1 | 0.00 | 0.00 | 0.00 | 67 | 1007.6 |
| 20260505030033 | 72 | 161 | 1.7 | 6.1 | 0.00 | 0.00 | 0.00 | 67 | 1007.6 |
| 20260505025533 | 72 | 160 | 1.7 | 6.1 | 0.00 | 0.00 | 0.00 | 66 | 1007.5 |
| 20260505025031 | 72 | 142 | 0.9 | 3.5 | 0.00 | 0.00 | 0.00 | 66 | 1007.4 |
| 20260505024531 | 72 | 139 | 0.9 | 2.6 | 0.00 | 0.00 | 0.00 | 66 | 1007.3 |
| 20260505024032 | 72 | 140 | 0.9 | 3.5 | 0.00 | 0.00 | 0.00 | 65 | 1007.3 |
| 20260505023531 | 73 | 140 | 1.7 | 6.1 | 0.00 | 0.00 | 0.00 | 65 | 1007.3 |
| 20260505023031 | 73 | 134 | 1.7 | 6.1 | 0.00 | 0.00 | 0.00 | 65 | 1007.3 |
| 20260505022531 | 73 | 131 | 0.9 | 7.0 | 0.00 | 0.00 | 0.00 | 65 | 1007.3 |
| 20260505022031 | 73 | 132 | 2.6 | 7.0 | 0.00 | 0.00 | 0.00 | 64 | 1007.3 |
| 20260505021531 | 73 | 184 | 1.7 | 5.2 | 0.00 | 0.00 | 0.00 | 64 | 1007.2 |
| 20260505021031 | 73 | 153 | 1.7 | 6.1 | 0.00 | 0.00 | 0.00 | 64 | 1007.2 |
| 20260505020536 | 74 | 170 | 2.6 | 6.1 | 0.00 | 0.00 | 0.00 | 64 | 1007.2 |
| 20260505020030 | 74 | 172 | 1.7 | 4.3 | 0.00 | 0.00 | 0.00 | 64 | 1007.3 |
| 20260505015530 | 74 | 227 | 0.9 | 5.2 | 0.00 | 0.00 | 0.00 | 64 | 1007.3 |
| 20260505015030 | 74 | 202 | 2.6 | 5.2 | 0.00 | 0.00 | 0.00 | 63 | 1007.3 |
| 20260505014530 | 75 | 129 | 0.0 | 3.5 | 0.00 | 0.00 | 0.00 | 63 | 1007.2 |
| 20260505014030 | 75 | 128 | 0.9 | 3.5 | 0.00 | 0.00 | 0.00 | 63 | 1007.3 |
| 20260505013530 | 74 | 143 | 0.9 | 3.5 | 0.00 | 0.00 | 0.00 | 63 | 1007.3 |
| 20260505013031 | 75 | 140 | 0.0 | 7.0 | 0.00 | 0.00 | 0.00 | 62 | 1007.3 |
| 20260505012531 | 75 | 132 | 1.7 | 7.0 | 0.00 | 0.00 | 0.00 | 61 | 1007.3 |
| 20260505012030 | 75 | 166 | 0.9 | 7.0 | 0.00 | 0.00 | 0.00 | 61 | 1007.3 |
| 20260505011529 | 76 | 192 | 2.6 | 5.2 | 0.00 | 0.00 | 0.00 | 61 | 1007.5 |
| 20260505011028 | 76 | 140 | 0.9 | 6.1 | 0.00 | 0.00 | 0.00 | 60 | 1007.5 |
| 20260505010528 | 77 | 146 | 1.7 | 6.1 | 0.00 | 0.00 | 0.00 | 60 | 1007.5 |
| 20260505010028 | 77 | 130 | 0.9 | 5.2 | 0.00 | 0.00 | 0.00 | 60 | 1007.5 |
| 20260505005532 | 77 | 178 | 2.6 | 5.2 | 0.00 | 0.00 | 0.00 | 60 | 1007.6 |
| 20260505005030 | 76 | 132 | 2.6 | 5.2 | 0.00 | 0.00 | 0.00 | 61 | 1007.7 |
| 20260505004528 | 76 | 212 | 1.7 | 5.2 | 0.00 | 0.00 | 0.00 | 60 | 1007.7 |
| 20260505004027 | 76 | 161 | 1.7 | 5.2 | 0.00 | 0.00 | 0.00 | 60 | 1007.7 |
| 20260505003527 | 76 | 128 | 0.9 | 5.2 | 0.00 | 0.00 | 0.00 | 60 | 1007.6 |
| 20260505003027 | 76 | 162 | 1.7 | 6.1 | 0.00 | 0.00 | 0.00 | 61 | 1007.6 |
| 20260505002527 | 76 | 136 | 1.7 | 6.1 | 0.00 | 0.00 | 0.00 | 60 | 1007.7 |
| 20260505002027 | 76 | 221 | 1.7 | 6.1 | 0.00 | 0.00 | 0.00 | 60 | 1007.6 |
| 20260505001527 | 76 | 153 | 1.7 | 7.8 | 0.00 | 0.00 | 0.00 | 61 | 1007.7 |
| 20260505001026 | 76 | 148 | 3.5 | 7.8 | 0.00 | 0.00 | 0.00 | 62 | 1007.8 |
| 20260505000529 | 75 | 161 | 2.6 | 8.7 | 0.00 | 0.00 | 0.00 | 62 | 1007.8 |
| 20260505000028 | 75 | 136 | 2.6 | 6.1 | 0.00 | 0.00 | 0.00 | 61 | 1007.9 |
| 20260504235526 | 75 | 132 | 1.7 | 7.0 | 0.00 | 0.00 | 0.00 | 59 | 1007.9 |
| 20260504235027 | 76 | 167 | 2.6 | 9.6 | 0.00 | 0.00 | 0.00 | 60 | 1007.9 |
| 20260504234525 | 77 | 140 | 3.5 | 9.6 | 0.00 | 0.00 | 0.00 | 58 | 1007.9 |
| 20260504234026 | 76 | 83 | 0.0 | 7.0 | 0.00 | 0.00 | 0.00 | 59 | 1007.8 |
| 20260504233526 | 76 | 143 | 2.6 | 8.7 | 0.00 | 0.00 | 0.00 | 60 | 1007.9 |
| 20260504233025 | 75 | 182 | 3.5 | 8.7 | 0.00 | 0.00 | 0.00 | 59 | 1008.0 |
| 20260504232527 | 75 | 140 | 1.7 | 6.1 | 0.00 | 0.00 | 0.00 | 62 | 1008.0 |
| 20260504232024 | 75 | 147 | 2.6 | 6.1 | 0.00 | 0.00 | 0.00 | 59 | 1008.0 |
| 20260504231524 | 75 | 198 | 2.6 | 6.1 | 0.00 | 0.00 | 0.00 | 61 | 1008.1 |
| 20260504231024 | 75 | 138 | 1.7 | 7.0 | 0.00 | 0.00 | 0.00 | 59 | 1008.1 |
| 20260504230524 | 76 | 136 | 0.0 | 6.1 | 0.00 | 0.00 | 0.00 | 59 | 1008.1 |
| 20260504230027 | 76 | 117 | 2.6 | 6.1 | 0.00 | 0.00 | 0.00 | 58 | 1008.2 |
| 20260504225526 | 76 | 170 | 1.7 | 6.1 | 0.00 | 0.00 | 0.00 | 59 | 1008.3 |
| 20260504225023 | 75 | 194 | 1.7 | 6.1 | 0.00 | 0.00 | 0.00 | 59 | 1008.3 |
| 20260504224523 | 75 | 126 | 1.7 | 7.0 | 0.00 | 0.00 | 0.00 | 58 | 1008.4 |
| 20260504224024 | 76 | 107 | 3.5 | 7.0 | 0.00 | 0.00 | 0.00 | 56 | 1008.4 |
| 20260504223524 | 77 | 175 | 0.9 | 5.2 | 0.00 | 0.00 | 0.00 | 57 | 1008.6 |
| 20260504223022 | 76 | 296 | 1.7 | 3.5 | 0.00 | 0.00 | 0.00 | 60 | 1008.5 |
| 20260504222522 | 75 | 217 | 0.9 | 4.3 | 0.00 | 0.00 | 0.00 | 60 | 1008.6 |
| 20260504222019 | 74 | 130 | 0.9 | 4.3 | 0.00 | 0.00 | 0.00 | 60 | 1008.7 |
| 20260504221523 | 74 | 129 | 1.7 | 7.0 | 0.00 | 0.00 | 0.00 | 58 | 1008.8 |
| 20260504221018 | 74 | 111 | 0.9 | 4.3 | 0.00 | 0.00 | 0.00 | 59 | 1008.9 |
| 20260504220517 | 74 | 219 | 0.9 | 6.1 | 0.00 | 0.00 | 0.00 | 59 | 1009.0 |
| 20260504220021 | 74 | 211 | 2.6 | 6.1 | 0.00 | 0.00 | 0.00 | 60 | 1009.0 |
| 20260504215516 | 74 | 141 | 1.7 | 7.0 | 0.00 | 0.00 | 0.00 | 60 | 1009.1 |
| 20260504215019 | 74 | 195 | 2.6 | 6.1 | 0.00 | 0.00 | 0.00 | 62 | 1009.1 |
| 20260504214514 | 73 | 158 | 1.7 | 5.2 | 0.00 | 0.00 | 0.00 | 61 | 1009.1 |
| 20260504214012 | 72 | 164 | 0.9 | 4.3 | 0.00 | 0.00 | 0.00 | 64 | 1009.2 |
| 20260504213511 | 71 | 124 | 1.7 | 6.1 | 0.00 | 0.00 | 0.00 | 62 | 1009.3 |
| 20260504213012 | 71 | 136 | 2.6 | 7.0 | 0.00 | 0.00 | 0.00 | 61 | 1009.3 |
| 20260504212511 | 72 | 121 | 1.7 | 7.0 | 0.00 | 0.00 | 0.00 | 63 | 1009.4 |